DW4393 Weather Reports


Display with metric or nautical units.
time (UTC)temp
F
wind
direction
speed
MPH
gust
MPH
rain 1hr
in
rain 24hr
in
rain mn
in
humidity
%
barometer
mb
20260902024304 76 309 0.0 0.0 0.00 0.00 0.00 88 1017.4
20260902023803 76 309 0.0 0.0 0.00 0.00 0.00 88 1017.4
20260902023303 76 309 0.0 0.0 0.00 0.00 0.00 88 1017.3
20260902021804 77 309 0.0 0.0 0.00 0.00 0.00 87 1017.2
20260902021303 77 309 0.0 0.0 0.00 0.00 0.00 87 1017.3
20260902020804 77 309 0.0 0.0 0.00 0.00 0.00 86 1017.2
20260902020305 77 309 0.0 0.0 0.00 0.00 0.00 87 1017.2
20260902014803 77 309 0.0 0.0 0.00 0.00 0.00 86 1017.1
20260902014304 78 309 0.0 0.0 0.00 0.00 0.00 85 1017.0
20260902013803 78 309 0.0 0.0 0.00 0.00 0.00 85 1016.9
20260902013303 78 309 0.0 0.0 0.00 0.00 0.00 85 1016.9
20260902011804 79 309 0.0 0.0 0.00 0.00 0.00 84 1016.7
20260902011303 79 309 0.0 0.0 0.00 0.00 0.00 83 1016.6
20260902010804 79 309 0.0 0.0 0.00 0.00 0.00 83 1016.5
20260902010304 79 309 0.0 0.0 0.00 0.00 0.00 82 1016.6
20260902004804 80 309 0.0 0.0 0.00 0.00 0.00 82 1016.4
20260902004303 80 309 0.0 0.0 0.00 0.00 0.00 81 1016.3
20260902003804 81 309 0.0 0.0 0.00 0.00 0.00 81 1016.3
20260902003304 81 309 0.0 0.0 0.00 0.00 0.00 79 1016.2
20260902001803 82 309 0.0 0.0 0.00 0.00 0.00 76 1016.2
20260902001303 82 309 0.0 0.0 0.00 0.00 0.00 76 1016.2
20260902000804 83 309 0.0 0.0 0.00 0.00 0.00 74 1016.2
20260902000304 83 309 0.0 0.0 0.00 0.00 0.00 73 1016.3
20260901234304 84 309 0.0 0.0 0.00 0.00 0.00 71 1016.4
20260901233804 85 309 0.0 0.0 0.00 0.00 0.00 69 1016.4
20260901233304 85 309 0.0 0.0 0.00 0.00 0.00 69 1016.4
20260901231804 86 309 0.0 0.0 0.00 0.00 0.00 66 1016.4
20260901231303 87 309 0.0 0.0 0.00 0.00 0.00 63 1016.3
20260901230303 88 309 0.0 0.0 0.00 0.00 0.00 59 1016.4
20260901224304 89 309 0.0 0.0 0.00 0.00 0.00 59 1016.2
20260901223803 89 309 0.0 0.0 0.00 0.00 0.00 59 1016.2
20260901223304 89 309 0.0 0.0 0.00 0.00 0.00 57 1016.2
20260901221304 90 309 0.0 0.0 0.00 0.00 0.00 58 1016.3
20260901220803 91 309 0.0 0.0 0.00 0.00 0.00 55 1016.2
20260901220304 91 309 0.0 0.0 0.00 0.00 0.00 51 1016.2
20260901214804 92 309 0.0 0.0 0.00 0.00 0.00 52 1016.2
20260901214303 91 309 0.0 0.0 0.00 0.00 0.00 53 1016.2
20260901213804 91 309 0.0 0.0 0.00 0.00 0.00 54 1016.1
20260901213303 90 278 0.0 0.0 0.00 0.00 0.00 57 1016.1
20260901211804 90 358 0.0 0.0 0.00 0.00 0.00 60 1016.4
20260901210804 92 29 0.0 0.0 0.00 0.00 0.00 50 1016.3
20260901210304 93 29 0.0 0.0 0.00 0.00 0.00 50 1016.3
20260901204804 93 29 0.0 0.0 0.00 0.00 0.00 48 1016.5
20260901203804 93 141 0.0 0.0 0.00 0.00 0.00 51 1016.5
20260901203303 94 238 0.0 0.0 0.00 0.00 0.00 49 1016.6
20260901201804 95 288 0.0 0.0 0.00 0.00 0.00 47 1016.7
20260901201304 94 282 0.0 0.0 0.00 0.00 0.00 48 1016.8
20260901200303 93 293 0.0 0.0 0.00 0.00 0.00 47 1016.8
20260901193806 95 3 0.0 0.0 0.00 0.00 0.00 45 1017.2
20260901193304 95 246 0.0 0.0 0.00 0.00 0.00 47 1017.1
20260901191804 92 208 0.0 0.0 0.00 0.00 0.00 53 1017.3
20260901191304 93 207 0.0 0.0 0.00 0.00 0.00 48 1017.4
20260901190804 91 284 0.0 0.0 0.00 0.00 0.00 54 1017.4
20260901190304 90 18 0.0 0.0 0.00 0.00 0.00 53 1017.5
20260901184803 93 344 0.0 0.0 0.00 0.00 0.00 51 1017.5
20260901184304 93 284 0.0 0.0 0.00 0.00 0.00 49 1017.6
20260901183803 92 200 0.0 0.0 0.00 0.00 0.00 50 1017.6
20260901183303 92 256 0.0 0.0 0.00 0.00 0.00 51 1017.7
20260901181802 92 243 0.0 0.0 0.00 0.00 0.00 53 1017.9
20260901181302 91 239 0.0 0.0 0.00 0.00 0.00 56 1017.9
20260901180802 89 297 0.0 0.0 0.00 0.00 0.00 58 1018.0
20260901180302 88 297 0.0 0.0 0.00 0.00 0.00 60 1018.1
20260901174802 91 240 0.0 0.0 0.00 0.00 0.00 56 1018.2
20260901174302 90 210 0.0 0.0 0.00 0.00 0.00 55 1018.1
20260901173802 88 161 0.0 0.0 0.00 0.00 0.00 60 1018.3
20260901173302 87 161 0.0 0.0 0.00 0.00 0.00 66 1018.4
20260901171803 88 17 0.0 0.0 0.00 0.00 0.00 62 1018.5
20260901171302 88 186 0.0 0.0 0.00 0.00 0.00 62 1018.6
20260901170803 89 186 0.0 0.0 0.00 0.00 0.00 60 1018.7
20260901170302 89 186 0.0 0.0 0.00 0.00 0.00 59 1018.7
20260901164803 87 186 0.0 0.0 0.00 0.00 0.00 67 1019.0
20260901163803 88 186 0.0 0.0 0.00 0.00 0.00 60 1019.1
20260901163302 88 235 0.0 0.0 0.00 0.00 0.00 62 1019.1
20260901161803 89 327 0.0 0.0 0.00 0.00 0.00 59 1019.4
20260901160803 88 223 0.0 0.0 0.00 0.00 0.00 59 1019.5
20260901160303 88 223 0.0 0.0 0.00 0.00 0.00 61 1019.4
20260901154802 87 184 0.0 0.0 0.00 0.00 0.00 66 1019.6
20260901154303 87 173 0.0 0.0 0.00 0.00 0.00 67 1019.6
20260901153303 85 197 0.0 0.0 0.00 0.00 0.00 68 1019.6
20260901151802 85 197 0.0 0.0 0.00 0.00 0.00 70 1019.7
20260901151303 85 183 0.0 0.0 0.00 0.00 0.00 72 1019.7
20260901150802 84 183 0.0 0.0 0.00 0.00 0.00 73 1019.8
20260901144802 83 64 0.0 0.0 0.00 0.00 0.00 75 1019.9
20260901144302 82 65 0.0 0.0 0.00 0.00 0.00 76 1019.9
20260901143802 82 75 0.0 0.0 0.00 0.00 0.00 77 1019.9
20260901143303 82 206 0.0 0.0 0.00 0.00 0.00 78 1020.0
20260901141803 81 206 0.0 0.0 0.00 0.00 0.00 80 1019.8
20260901141302 80 206 0.0 0.0 0.00 0.00 0.00 82 1019.8
20260901140302 79 206 0.0 0.0 0.00 0.00 0.00 84 1019.6
20260901134803 78 206 0.0 0.0 0.00 0.00 0.00 86 1019.5
20260901134302 77 206 0.0 0.0 0.00 0.00 0.00 88 1019.6
20260901133802 76 206 0.0 0.0 0.00 0.00 0.00 89 1019.6
20260901133302 75 206 0.0 0.0 0.00 0.00 0.00 91 1019.7
20260901131802 74 206 0.0 0.0 0.00 0.00 0.00 94 1019.7
20260901131302 74 206 0.0 0.0 0.00 0.00 0.00 94 1019.7
20260901130303 73 206 0.0 0.0 0.00 0.00 0.00 95 1019.9
20260901124802 71 206 0.0 0.0 0.00 0.00 0.00 95 1019.7
20260901124302 71 206 0.0 0.0 0.00 0.00 0.00 95 1019.7
20260901123802 71 206 0.0 0.0 0.00 0.00 0.00 95 1019.7
20260901123302 70 206 0.0 0.0 0.00 0.00 0.00 95 1019.7
20260901121803 70 206 0.0 0.0 0.00 0.00 0.00 95 1019.5
20260901121303 70 206 0.0 0.0 0.00 0.00 0.00 95 1019.5
20260901120802 69 206 0.0 0.0 0.00 0.00 0.00 95 1019.5
20260901120303 69 206 0.0 0.0 0.00 0.00 0.00 95 1019.4
20260901114802 69 206 0.0 0.0 0.00 0.00 0.00 95 1019.2
20260901114303 69 206 0.0 0.0 0.00 0.00 0.00 95 1019.1
20260901113303 69 206 0.0 0.0 0.00 0.00 0.00 95 1019.0
20260901111803 69 206 0.0 0.0 0.00 0.00 0.00 95 1018.9
20260901111303 69 206 0.0 0.0 0.00 0.00 0.00 95 1018.9
20260901110303 69 206 0.0 0.0 0.00 0.00 0.00 95 1018.9
20260901104803 69 206 0.0 0.0 0.00 0.00 0.00 95 1018.5
20260901104302 69 206 0.0 0.0 0.00 0.00 0.00 95 1018.6
20260901103802 69 206 0.0 0.0 0.00 0.00 0.00 95 1018.5
20260901103302 69 206 0.0 0.0 0.00 0.00 0.00 95 1018.4
20260901101803 69 206 0.0 0.0 0.00 0.00 0.00 95 1018.4
20260901101303 69 206 0.0 0.0 0.00 0.00 0.00 95 1018.4
20260901100802 69 206 0.0 0.0 0.00 0.00 0.00 95 1018.4
20260901100303 69 206 0.0 0.0 0.00 0.00 0.00 95 1018.3
20260901094802 69 206 0.0 0.0 0.00 0.00 0.00 95 1018.2
20260901094303 69 206 0.0 0.0 0.00 0.00 0.00 95 1018.2
20260901093803 69 206 0.0 0.0 0.00 0.00 0.00 94 1018.2
20260901093302 69 206 0.0 0.0 0.00 0.00 0.00 94 1018.2
20260901091803 69 206 0.0 0.0 0.00 0.00 0.00 94 1018.2
20260901091303 70 206 0.0 0.0 0.00 0.00 0.00 94 1018.2
20260901090803 70 206 0.0 0.0 0.00 0.00 0.00 94 1018.1
20260901090303 70 206 0.0 0.0 0.00 0.00 0.00 94 1018.2
20260901084802 70 206 0.0 0.0 0.00 0.00 0.00 94 1018.3
20260901084303 70 206 0.0 0.0 0.00 0.00 0.00 94 1018.3
20260901083803 70 206 0.0 0.0 0.00 0.00 0.00 94 1018.2
20260901083302 70 206 0.0 0.0 0.00 0.00 0.00 94 1018.2
20260901081803 70 206 0.0 0.0 0.00 0.00 0.00 94 1018.2
20260901081303 70 206 0.0 0.0 0.00 0.00 0.00 94 1018.2
20260901080803 70 206 0.0 0.0 0.00 0.00 0.00 94 1018.1
20260901074802 70 206 0.0 0.0 0.00 0.00 0.00 94 1017.9
20260901074303 70 206 0.0 0.0 0.00 0.00 0.00 94 1017.9
20260901073803 70 206 0.0 0.0 0.00 0.00 0.00 94 1017.9
20260901073303 70 206 0.0 0.0 0.00 0.00 0.00 94 1018.0
20260901071803 70 206 0.0 0.0 0.00 0.00 0.00 94 1018.0
20260901071303 71 206 0.0 0.0 0.00 0.00 0.00 94 1018.1
20260901070803 71 206 0.0 0.0 0.00 0.00 0.00 94 1018.1
20260901070303 70 206 0.0 0.0 0.00 0.00 0.00 94 1018.1
20260901064803 71 206 0.0 0.0 0.00 0.00 0.00 93 1018.2
20260901063802 71 206 0.0 0.0 0.00 0.00 0.00 93 1018.2
20260901063303 71 206 0.0 0.0 0.00 0.00 0.00 93 1018.1
20260901061303 71 206 0.0 0.0 0.00 0.00 0.00 93 1018.3
20260901060802 71 206 0.0 0.0 0.00 0.00 0.00 93 1018.4
20260901060303 71 206 0.0 0.0 0.00 0.00 0.00 93 1018.5
20260901054803 71 206 0.0 0.0 0.00 0.00 0.00 93 1018.5
20260901054303 72 206 0.0 0.0 0.00 0.00 0.00 93 1018.5
20260901053803 72 206 0.0 0.0 0.00 0.00 0.00 93 1018.5
20260901050803 72 206 0.0 0.0 0.00 0.00 0.00 93 1018.6
20260901050303 72 206 0.0 0.0 0.00 0.00 0.00 92 1018.5
20260901044803 72 314 0.0 0.0 0.00 0.00 0.00 92 1018.5
20260901044303 72 314 0.0 0.0 0.00 0.00 0.00 92 1018.4
20260901043303 73 314 0.0 0.0 0.00 0.00 0.00 92 1018.5
20260901041803 73 314 0.0 0.0 0.00 0.00 0.00 92 1018.5
20260901041303 73 314 0.0 0.0 0.00 0.00 0.00 92 1018.4
20260901040821 73 314 0.0 0.0 0.00 0.00 0.00 92 1018.5
20260901040303 73 314 0.0 0.0 0.00 0.00 0.00 91 1018.4
20260901034803 73 314 0.0 0.0 0.00 0.00 0.00 91 1018.5
20260901034303 74 314 0.0 0.0 0.00 0.00 0.00 91 1018.6
20260901033803 74 314 0.0 0.0 0.00 0.00 0.00 91 1018.5
20260901033303 74 314 0.0 0.0 0.00 0.00 0.00 91 1018.5
20260901031303 74 314 0.0 0.0 0.00 0.00 0.00 90 1018.4
20260901030804 74 314 0.0 0.0 0.00 0.00 0.00 90 1018.4
20260901030303 74 314 0.0 0.0 0.00 0.00 0.00 90 1018.4